Location: Kermapucano
(48.0667°N, 3.3000°W)
Time: 20:29:40
(UTC+00:00)

ATLAS 3B R/B - Pass Details

Date: 29 November 2020
Orbit: 1013 x 1182 km, 63.8° (Epoch: 08 January)

Event Time Altitude Azimuth Distance (km) Brightness Sun altitude
Exits shadow 05:17:52 33° 320° (NW) 1,759 3.4 -23.0°
Maximum altitude 05:21:23 88° 231° (SW) 1,110 2.7 -22.4°
Drops below altitude 10° 05:28:36 10° 143° (SE) 3,017 5.7 -21.3°
Sets 05:31:19 0° 143° (SE) 3,995 6.4 -20.8°
